Regional Weather Roundup
Issued by NWS Mobile, AL

Home | Current Version | Previous Version | Text Only | Print | Product List | Glossary On
Versions: 1 2 3 4 5 6 7 8 9 10 11 12 13 14 15 16 17 18 19 20 21 22 23 24 25 26 27 28 29 30 31 32 33 34 35 36 37 38 39 40 41 42 43 44 45 46 47 48 49 50
000
ASUS44 KMOB 061412
RWRMOB
REGIONAL WEATHER ROUNDUP
NATIONAL WEATHER SERVICE MOBILE AL
800 AM CST FRI MAR 06 2015

NOTE: "FAIR" INDICATES FEW OR NO CLOUDS BELOW 12,000 FEET WITH NO
      SIGNIFICANT WEATHER AND/OR OBSTRUCTIONS TO VISIBILITY.

  * THESE STATIONS ARE PART OF THE UNIVERSITY OF SOUTH ALABAMA
    MESONET AND ARE NOT UNDER NWS OR FAA QUALITY CONTROL.

ALZ061>064-061500-
COASTAL ALABAMA

CITY           SKY/WX    TMP DP  RH WIND       PRES   REMARKS
MOBILE REG APT MOSUNNY   29  19  66 N17G24    30.45R WCI  17
BROOKLEY FIELD SUNNY     32  22  66 N17       30.46R WCI  21
USA CAMPUS*      N/A     30  21  69 NE6       30.45R WCI  24
DOG RIVER*     NOT AVBL


CITY           SKY/WX    TMP DP  RH WIND       PRES   REMARKS
MOUNT VERNON*    N/A     28  21  74 CALM      30.49R
SARALAND*      NOT AVBL
BAY MINETTE*   NOT AVBL
LOXLEY*          N/A     28  23  80 N24       30.43R WCI  14
ROBERTSDALE*     N/A     30  23  74 NE10      30.42R WCI  21
FAIRHOPE*      NOT AVBL
ELBERTA*         N/A     30  23  74 VRB17     30.41R WCI  18
FOLEY*         NOT AVBL
GRAND BAY*       N/A     30  21  69 N13       30.43R WCI  20
DAUPHIN ISLND* NOT AVBL
BON SCOUR NWR* NOT AVBL
GULF SHORES    SUNNY     31  21  66 N13G20    30.42R WCI  21

$$

ALZ051>060-061500-
INTERIOR SOUTHWEST AND SOUTH CENTRAL ALABAMA

CITY           SKY/WX    TMP DP  RH WIND       PRES   REMARKS
GREENVILLE     PTSUNNY   28  19  69 N14       30.43R WCI  17
EVERGREEN      SUNNY     29  20  69 N14G22    30.45R WCI  18
CASTLEBERRY*   NOT AVBL
ATMORE*          N/A     28  23  80 N13       30.46R WCI  18
DIXIE*         NOT AVBL
ANDALUSIA/OPP  SUNNY     34  21  59 N14       30.42  WCI  25
ANDALUSIA*       N/A     28  23  80 N10       30.40R WCI  19
FLORALA APT    SUNNY     31  22  69 N10G20    30.42R WCI  22
FLORALA*         N/A     30  23  74 NE9       30.36R WCI  22

$$

FLZ001>006-061500-
WESTERN FLORIDA PANHANDLE

CITY           SKY/WX    TMP DP  RH WIND       PRES   REMARKS
PENSACOLA      SUNNY     32  21  64 N15G24    30.41R WCI  22
NAS PENSACOLA  MOSUNNY   33  22  63 N14G23    30.40  WCI  23
MILTON         MOSUNNY   30  20  66 N13G20    30.42  WCI  20
WHTNG S FIELD  MOSUNNY   33  20  58 N16G25    30.42R WCI  23


CITY           SKY/WX    TMP DP  RH WIND       PRES   REMARKS
WALNUT HILL*   NOT AVBL
JAY*             N/A     28  21  74 NE8       30.43R WCI  20
DUKE FIELD     SUNNY     32  22  67 N15       30.38R WCI  22
CRESTVIEW      SUNNY     32  22  66 N8G20     30.42R WCI  25
VALPARAISO     MOSUNNY   34  23  64 N15       30.37  WCI  24
DESTIN         SUNNY     35  26  69 N15G22    30.38R WCI  25

$$

MSZ076-079-061500-
INTERIOR SOUTHEAST MISSISSIPPI

CITY           SKY/WX    TMP DP  RH WIND       PRES   REMARKS
LEAKESVILLE*   NOT AVBL
AGRICOLA*      NOT AVBL

$$

MARINE OBSERVATIONS

STATION/POSITION TIME  TEMP    WIND        PRES    WAVE
                       AIR SEA DIR/SP/G            HT/PER
                 (UTC) (F)     (DEG/KT/KT) (MB)    (FT/S)
E DAUPHIN ISLAND NOT AVBL
12 S ORANGE BCH  NOT AVBL

$$

SELECTED LOCATIONS ACROSS THE REGION

CITY           SKY/WX    TMP DP  RH WIND       PRES   REMARKS
NEW ORLEANS    MOSUNNY   33  23  66 N18G24    30.49R WCI  22
GULFPORT       SUNNY     31  18  58 N17       30.46R WCI  19
PASCAGOULA AP  SUNNY     31  18  58 N17G24    30.45R WCI  19
PASCAGOULA*    NOT AVBL
HATTIESBURG    SUNNY     28  17  63 N10G18    30.53R WCI  19
LAUREL         SUNNY     28  14  54 N8G21     30.51S WCI  20
MERIDIAN       SUNNY     26  17  68 N10       30.54R WCI  16
JACKSON        SUNNY     26  17  68 N15       30.57R WCI  14
MONTGOMERY     CLOUDY    28  19  69 N9        30.47R WCI  19
TROY           CLOUDY    31  24  75 N12       30.43R WCI  22
KINSTON*       NOT AVBL
GENEVA*        NOT AVBL
ASHFORD*         N/A     28  23  80 N10       30.40R WCI  19
DOTHAN         CLOUDY    33  27  78 N10       30.41R WCI  25
PANAMA CITY    SUNNY     36  27  69 N16       30.35R

$$




USA.gov is the U.S. government's official web portal to all federal, state and local government web resources and services.